Miscellaneous Local Product
Issued by NWS North Platte, NE

Home | Current Version | Previous Version | Text Only | Print | Product List | Glossary On
Versions: 1 2 3 4 5 6 7 8 9 10 11 12 13 14 15 16 17 18 19 20 21 22 23 24 25 26 27 28 29 30 31 32 33 34 35 36 37 38 39 40 41 42 43 44 45 46 47 48 49 50
000
AXUS43 KLBF 241410
MISLBF


WESTERN AND NORTH CENTRAL NEBRASKA HOURLY WEATHER ROUNDUP
NATIONAL WEATHER SERVICE NORTH PLATTE NE
900 AM CDT SUN MAY 24 2015

***STATIONS NOT REPORTING VARIABLES SUCH AS SKY/WEATHER OR
PRESSURE ARE PROVIDED BY THE NEBRASKA DEPARTMENT OF
ROADS...RAWS...AND APRS NETWORKS...AND ARE NOT UNDER
NATIONAL WEATHER SERVICE QUALITY CONTROL***

...OBSERVATIONS IN AND NEAR THE EASTERN PANHANDLE OF NEBRASKA...

CITY           SKY/WX    TMP DP  RH WIND       PRES   REMARKS
PINE RIDGE     RAIN      53  51  93 E7        29.91F FOG
CHADRON        CLOUDY    52  51  97 E8        29.89F
ALLIANCE       CLOUDY    53  51  93 N10       29.88S
SIDNEY         CLOUDY    50  49  96 W6        29.88F
WHITECLAY        N/A     51  50  95 SW5         N/A
BIG SPRINGS      N/A     57  55  92 SE3         N/A
$$

...OBSERVATIONS IN NORTH CENTRAL NEBRASKA...

CITY           SKY/WX    TMP DP  RH WIND       PRES   REMARKS
VALENTINE      LGT RAIN  55  54  96 E10       29.91F
THEDFORD       CLOUDY    57  56  97 E12       29.87F FOG
AINSWORTH      CLOUDY    56  56 100 E8        29.91F FOG
O`NEILL        CLOUDY    58  58  99 NE7       29.92F FOG
ORD            CLOUDY    58  57  97 E7        29.87F FOG
BROKEN BOW     CLOUDY    60  57  89 E6        29.87F
VALENTINE NWR    N/A     54  54  99 E9          N/A
SPRINGVIEW       N/A     56  55  96 E3          N/A
ROSE             N/A     59  59  99 NE7         N/A
NEWPORT          N/A     57  57  99 E7          N/A
SARGENT          N/A     58  58  99 CALM        N/A
COMSTOCK         N/A     64  63  99 E7          N/A
EWING            N/A     58  57  98 NE3         N/A
$$

...OBSERVATIONS IN SOUTHWEST NEBRASKA AND FAR NORTHEAST COLORADO...

CITY           SKY/WX    TMP DP  RH WIND       PRES   REMARKS
WRAY           CLOUDY    54  54  99 CALM      29.89S
IMPERIAL       CLOUDY    56  52  86 S8        29.87F
OGALLALA       CLOUDY    55  54  97 SE3       29.88S FOG
NORTH PLATTE   CLOUDY    56  54  93 SE7       29.88S
MCCOOK         CLOUDY    59  55  87 SE7       29.87S
LEXINGTON      CLOUDY    59  58  96 S5        29.88S
PAXTON           N/A     56  55  97 SE9         N/A
GOTHENBURG       N/A     57  53  87 SE5         N/A
CALLAWAY         N/A     58  58 100 E5          N/A
$$

...NORTH PLATTE AREA...

CITY           SKY/WX    TMP DP  RH WIND       PRES   REMARKS
AIRPORT        CLOUDY    56  54  93 SE7       29.88S
DOWNTOWN         N/A     56  54  94 E3          N/A
$$

...SOME WEATHER OBSERVATIONS FROM AROUND THE REGION...

CITY           SKY/WX    TMP DP  RH WIND       PRES   REMARKS
DENVER         MOSUNNY   50  42  74 W6        29.90F
LARAMIE        PTSUNNY   42  36  79 SW5       29.92F
CHEYENNE       SUNNY     46  40  79 CALM      29.90F
SCOTTSBLUFF    CLOUDY    53  51  93 CALM      29.89S
RAPID CITY     HVY RAIN  52  51  97 E17       29.93F FOG
PIERRE         CLOUDY    56  54  93 NE8       29.95F
WINNER         LGT RAIN  57  55  93 E8        29.93F VSB 1/4
SIOUX FALLS    CLOUDY    60  58  92 E12       29.95S
OMAHA          DRIZZLE   61  60  97 E7        29.85F FOG
GRAND ISLAND   CLOUDY    59  59 100 CALM      29.88F FOG
KANSAS CITY    CLOUDY    65  65 100 S9        29.88F
WICHITA        CLOUDY    62  60  93 SE3       29.89F
HAYS           CLOUDY    57  52  82 SE9       29.88F VSB 1
LIBERAL        CLOUDY    61  55  82 S7        29.88S
GOODLAND       CLOUDY    55  53  93 SE6       29.87F
$$



USA.gov is the U.S. government's official web portal to all federal, state and local government web resources and services.